Content
SEND FEEDBACK

Daily
Averages
Monthly
Summary
United States of America

MAURICEVILLE, TEXAS


Home > North America > United States > Texas
Elevation: 20 feet     Latitude: 30 14N     Longitude: 093 44W

WEATHER
 
SELECT A DAY
Number of Records: 113,897;   Date Range: 8/25/05 - 9/30/14
 
SHARE

PRINT THIS DATA

[ ← Previous Day ]
WEATHER ALMANAC - MAY 2, 2013
[ Next Day → ]
[ °C ]   °F
Weather ElementAverageHighLow
Temperature67.1 °F76.1 °F (5:15 pm)54.5 °F (11:55 pm)
Dewpoint61.5 °F66.4 °F (12:55 am)49.1 °F (11:35 pm)
Humidity82.7 %97 % (12:35 am)64 % (5:15 pm)
Barometer29.99 in30.11 in (10:55 pm)29.90 in (2:35 am)
Wind Speed5.8 mph18.4 mph (7:55 pm)
Wind Gust31.1 mph (9:35 pm)
Weather ElementAverage
Visibility9 mi
Wind DirectionSSE (165.8 °)

Weather ElementTotal
Precipitation---
Cooling Degree Days0.3 (Base 65)
Growing Degree Days15.3 (Base 50)
Averaged from 71 records on May 2, 2013
WEATHER CONDITIONS BREAKOUT
WIND DIRECTION BREAKOUT
WEATHER BY HOUR - MAY 2, 2013
[ °C ]   °F
Local TimeTemperatureDewpointHumidityBarometerVisibilityWind DirectionWind SpeedGust SpeedPrecipitationEventsConditions
12:35 AM67.1 °F66.2 °F97 %29.91 in7.0 miCalmMostly Cloudy
12:55 AM67.6 °F66.4 °F96 %29.91 in10.0 miCalmMostly Cloudy
1:15 AM67.5 °F66.2 °F96 %29.91 in7.0 miCalmMostly Cloudy
1:35 AM67.3 °F65.8 °F95 %29.91 in10.0 miCalmMostly Cloudy
1:55 AM67.1 °F65.7 °F95 %29.91 in7.0 miCalmMostly Cloudy
2:15 AM67.3 °F65.5 °F94 %29.91 in10.0 miCalmOvercast
2:35 AM67.1 °F65.3 °F94 %29.90 in10.0 miCalmMostly Cloudy
2:55 AM66.4 °F64.9 °F95 %29.90 in7.0 miCalmScattered Clouds
3:15 AM66.4 °F65.1 °F96 %29.90 in7.0 miCalmScattered Clouds
3:35 AM66.2 °F64.9 °F96 %29.90 in7.0 miCalmClear
3:55 AM66.2 °F64.8 °F95 %29.91 in7.0 miCalmClear
4:15 AM65.8 °F64.8 °F96 %29.91 in5.0 miCalmScattered Clouds
4:35 AM65.7 °F64.6 °F96 %29.92 in5.0 miCalmMostly Cloudy
4:55 AM65.3 °F64.4 °F97 %29.92 in2.5 miCalmOvercast
5:15 AM65.1 °F64.2 °F97 %29.92 in2.5 miCalmOvercast
5:35 AM64.6 °F63.5 °F96 %29.93 in7.0 miCalmMostly Cloudy
5:55 AM64.4 °F63.0 °F95 %29.93 in10.0 miCalmScattered Clouds
6:15 AM64.0 °F63.0 °F96 %29.93 in7.0 miCalmClear
6:35 AM64.2 °F63.1 °F96 %29.94 in5.0 miCalmClear
6:55 AM64.4 °F63.1 °F96 %29.95 in7.0 miCalmClear
7:15 AM64.4 °F63.3 °F96 %29.95 in7.0 miCalmMostly Cloudy
7:35 AM64.8 °F63.5 °F96 %29.96 in7.0 miCalmOvercast
7:55 AM65.3 °F63.9 °F95 %29.96 in7.0 miCalmOvercast
8:15 AM66.4 °F64.6 °F94 %29.97 in10.0 miCalmMostly Cloudy
8:35 AM67.1 °F65.1 °F93 %29.97 in10.0 miCalmMostly Cloudy
8:55 AM68.9 °F65.8 °F90 %29.97 in10.0 miCalmMostly Cloudy
9:15 AM69.6 °F65.3 °F86 %29.97 in10.0 miNorth (360°)11.5 mphMostly Cloudy
9:35 AM70.0 °F65.1 °F85 %29.97 in10.0 miNorth (360°)10.4 mph17.3 mphMostly Cloudy
9:55 AM70.7 °F65.5 °F83 %29.98 in10.0 miNorth (360°)10.4 mph16.1 mphOvercast
10:15 AM71.1 °F65.1 °F81 %29.98 in10.0 miNorth (360°)9.2 mphOvercast
10:35 AM71.1 °F64.8 °F80 %29.99 in10.0 miNorth (10°)8.1 mphOvercast
10:55 AM70.7 °F64.2 °F80 %29.99 in10.0 miNorth (360°)8.1 mphOvercast
11:15 AM71.1 °F63.9 °F78 %30.00 in10.0 miNorth (360°)8.1 mphOvercast
11:35 AM71.6 °F63.3 °F75 %30.00 in10.0 miNorth (360°)6.9 mphOvercast
11:55 AM73.2 °F63.3 °F71 %30.00 in10.0 miNorth (350°)9.2 mph16.1 mphOvercast
12:15 PM72.7 °F62.1 °F69 %30.00 in10.0 miNorth (360°)11.5 mph17.3 mphOvercast
12:35 PM73.2 °F61.7 °F67 %30.01 in10.0 miNorth (350°)11.5 mphOvercast
12:55 PM72.1 °F61.5 °F69 %30.01 in10.0 miNorth (360°)4.6 mphOvercast
1:15 PM71.8 °F62.2 °F72 %30.03 in10.0 miCalmOvercast
1:35 PM71.8 °F63.0 °F74 %30.03 in10.0 miCalmOvercast
1:55 PM71.8 °F62.8 °F73 %30.03 in10.0 miCalmOvercast
2:15 PM71.6 °F62.4 °F73 %30.03 in10.0 miNW (310°)9.2 mphOvercast
2:35 PM71.1 °F62.8 °F75 %30.03 in7.0 miNNW (330°)10.4 mphOvercast
2:55 PM71.6 °F63.0 °F74 %30.02 in10.0 miCalmOvercast
3:15 PM72.9 °F63.7 °F73 %30.01 in10.0 miCalmOvercast
3:35 PM72.5 °F63.3 °F73 %30.00 in10.0 miNNW (330°)10.4 mphOvercast
3:55 PM72.9 °F63.1 °F71 %29.99 in10.0 miNNW (340°)5.8 mphOvercast
4:15 PM73.8 °F62.8 °F68 %29.98 in10.0 miNW (320°)8.1 mphOvercast
4:35 PM74.1 °F62.6 °F67 %29.98 in10.0 miNNW (330°)11.5 mph16.1 mphOvercast
4:55 PM75.0 °F62.4 °F65 %29.98 in10.0 miNNW (330°)9.2 mphOvercast
5:15 PM76.1 °F63.3 °F64 %29.98 in10.0 miCalmMostly Cloudy
5:35 PM74.8 °F63.3 °F67 %29.98 in10.0 miCalmMostly Cloudy
5:55 PM74.5 °F63.5 °F68 %29.98 in10.0 miCalmOvercast
6:15 PM74.3 °F63.3 °F68 %29.98 in10.0 miNW (310°)6.9 mphMostly Cloudy
6:35 PM70.9 °F63.5 °F77 %29.99 in10.0 miWNW (300°)11.5 mph21.9 mphOvercast
6:55 PM68.4 °F60.8 °F77 %30.01 in10.0 miWest (280°)15.0 mph24.2 mphOvercast
7:15 PM63.9 °F57.6 °F80 %30.02 in10.0 miWest (280°)16.1 mph25.3 mphOvercast
7:35 PM62.2 °F56.7 °F82 %30.04 in10.0 miWNW (300°)12.7 mph25.3 mphOvercast
7:55 PM61.7 °F55.8 °F81 %30.05 in10.0 miNW (310°)18.4 mph24.2 mphOvercast
8:15 PM61.2 °F55.0 °F80 %30.06 in10.0 miNW (320°)12.7 mph21.9 mphOvercast
8:35 PM61.0 °F54.5 °F79 %30.06 in10.0 miNW (310°)10.4 mph19.6 mphOvercast
8:55 PM60.8 °F54.0 °F78 %30.07 in10.0 miNW (310°)9.2 mph21.9 mphOvercast
9:15 PM60.1 °F52.3 °F76 %30.08 in10.0 miNW (320°)15.0 mph25.3 mphOvercast
9:35 PM59.0 °F51.4 °F76 %30.08 in10.0 miNW (310°)17.3 mph31.1 mphOvercast
9:55 PM58.1 °F51.3 °F78 %30.09 in10.0 miNW (320°)13.8 mph24.2 mphOvercast
10:15 PM57.6 °F51.4 °F80 %30.09 in10.0 miNW (310°)12.7 mph23.0 mphOvercast
10:35 PM56.8 °F50.9 °F80 %30.10 in10.0 miNW (310°)15.0 mph21.9 mphOvercast
10:55 PM55.8 °F49.6 °F80 %30.11 in10.0 miNW (310°)13.8 mph24.2 mphOvercast
11:15 PM55.4 °F49.3 °F80 %30.11 in10.0 miNW (310°)15.0 mph23.0 mphOvercast
11:35 PM54.9 °F49.1 °F81 %30.11 in10.0 miNW (310°)13.8 mph23.0 mphOvercast
11:55 PM54.5 °F49.1 °F82 %30.11 in10.0 miNW (310°)11.5 mph21.9 mphOvercast
Hourly data recorded from KORG, located miles away from Mauriceville, Texas







STORIES FROM OUR PARTNERS